Regional Weather Roundup
Issued by NWS Goodland, KS

Home | Current Version | Previous Version | Text Only | Print | Product List | Glossary Off
Versions: 1 2 3 4 5 6 7 8 9 10 11 12 13 14 15 16 17 18 19 20 21 22 23 24 25 26 27 28 29 30 31 32 33 34 35 36 37 38 39 40 41 42 43 44 45 46 47 48 49 50

000
ASUS43 KGLD 220259
RWRGLD

GOODLAND FORECAST AREA HOURLY WEATHER ROUNDUP
NATIONAL WEATHER SERVICE GOODLAND KS
900 PM MDT SUN SEP 21 2014

...OFFICIAL OBSERVATIONS...

CITY           SKY/WX    TMP DP  RH WIND       PRES   REMARKS
GOODLAND KS    MOCLDY    57  44  62 SE7       30.34R
HILL CITY KS   CLEAR     58  43  57 CALM      30.30R
IMPERIAL NEB   CLOUDY    62  44  51 SE7       30.32R
MCCOOK NEB     MOCLDY    61  44  53 E3        30.30R
AKRON CO       MOCLDY    59  42  53 SE10      30.33R
BURLINGTON CO  MOCLDY    62  39  42 SE9       30.35R
LIMON CO       PTCLDY    59  41  51 SE9       30.36R
$$

...UNOFFICIAL OBSERVATIONS...

CITY           SKY/WX    TMP DP  RH WIND       PRES   REMARKS
COLBY KS       CLEAR     61  46  59 E5        30.34R
GOVE KS          N/A     60  32  34 MISG        N/A
NORTON KS      CLEAR     57  37  47 CALM      30.29R
SHARON SPRINGS   N/A     60  43  54 CALM        N/A
WAKEENEY KS      N/A     60  36  39 MISG        N/A
TRENTON NEB      N/A     62  32  32 SE6         N/A
KIT CARSON CO    N/A     63  40  43 CALM        N/A
YUMA CO          N/A     59  44  56 SE8         N/A
$$



USA.gov is the U.S. government's official web portal to all federal, state and local government web resources and services.